TimeCDT,TemperatureF,Dew PointF,Humidity,Sea Level PressureIn,VisibilityMPH,Wind Direction,Wind SpeedMPH,Gust SpeedMPH,PrecipitationIn,Events,Conditions,WindDirDegrees,DateUTC
12:53 AM,79.0,66.0,64,29.71,10.0,SSE,24.2,31.1,N/A,,Clear,150,2013-06-25 05:53:00
1:53 AM,77.0,66.0,69,29.69,10.0,SSE,25.3,34.5,N/A,,Clear,160,2013-06-25 06:53:00
2:53 AM,77.0,66.0,69,29.68,10.0,SSE,21.9,33.4,N/A,,Clear,160,2013-06-25 07:53:00
3:53 AM,75.9,66.0,71,29.69,10.0,SSE,21.9,35.7,N/A,,Clear,150,2013-06-25 08:53:00
4:53 AM,75.0,64.9,71,29.65,10.0,SSE,24.2,32.2,N/A,,Clear,150,2013-06-25 09:53:00
5:53 AM,75.0,64.9,71,29.65,10.0,SSE,21.9,31.1,N/A,,Clear,150,2013-06-25 10:53:00
6:53 AM,73.9,64.9,73,29.63,10.0,South,26.5,32.2,N/A,,Clear,170,2013-06-25 11:53:00
7:53 AM,75.9,64.0,67,29.63,10.0,South,23.0,31.1,N/A,,Clear,170,2013-06-25 12:53:00
8:53 AM,79.0,64.0,60,29.62,10.0,South,24.2,35.7,N/A,,Clear,180,2013-06-25 13:53:00
9:53 AM,82.0,64.0,54,29.61,10.0,South,26.5,35.7,N/A,,Clear,190,2013-06-25 14:53:00
10:53 AM,86.0,64.0,48,29.59,10.0,South,25.3,31.1,N/A,,Clear,190,2013-06-25 15:53:00
11:53 AM,91.9,61.0,35,29.59,10.0,SSW,19.6,29.9,N/A,,Clear,210,2013-06-25 16:53:00
12:53 PM,98.1,59.0,27,29.57,10.0,SSW,20.7,32.2,N/A,,Clear,210,2013-06-25 17:53:00
1:53 PM,102.0,51.1,18,29.54,10.0,WSW,21.9,28.8,N/A,,Clear,240,2013-06-25 18:53:00
2:53 PM,99.0,52.0,21,29.57,10.0,WNW,16.1,27.6,N/A,,Clear,290,2013-06-25 19:53:00
3:53 PM,100.0,57.9,25,29.57,10.0,NW,17.3,-,N/A,,Clear,310,2013-06-25 20:53:00
4:53 PM,100.0,59.0,26,29.59,10.0,NW,19.6,28.8,N/A,,Clear,310,2013-06-25 21:53:00
5:53 PM,99.0,55.9,24,29.62,10.0,NNW,23.0,-,N/A,,Clear,330,2013-06-25 22:53:00
6:53 PM,98.1,50.0,20,29.64,10.0,NNW,16.1,-,N/A,,Clear,340,2013-06-25 23:53:00
7:53 PM,93.9,54.0,26,29.66,10.0,North,8.1,-,N/A,,Clear,360,2013-06-26 00:53:00
8:53 PM,87.1,55.9,35,29.67,10.0,NNE,4.6,-,N/A,,Clear,30,2013-06-26 01:53:00
9:53 PM,82.9,55.0,38,29.68,10.0,East,6.9,-,N/A,,Clear,90,2013-06-26 02:53:00
10:53 PM,78.1,55.9,46,29.72,10.0,ESE,8.1,-,N/A,,Clear,120,2013-06-26 03:53:00
11:53 PM,75.0,55.0,50,29.73,10.0,SE,10.4,-,N/A,,Clear,140,2013-06-26 04:53:00